Time,TemperatureF,DewpointF,PressureIn,WindDirection,WindDirectionDegrees,WindSpeedMPH,WindSpeedGustMPH,Humidity,HourlyPrecipIn,Conditions,Clouds,dailyrainin,SoftwareType,DateUTC
2013-02-25 00:02:00,26.0,-99.9,-100.00,North,-999,-999.0,-999.0,-999,0.02,,,0.27,,2013-02-25 05:02:00,
2013-02-25 00:11:00,26.0,-99.9,-100.00,North,-999,-999.0,-999.0,-999,0.02,,,0.27,,2013-02-25 05:11:00,
2013-02-25 00:42:00,26.0,-99.9,-100.00,North,-999,-999.0,-999.0,-999,0.01,,,0.26,,2013-02-25 05:42:00,
2013-02-25 00:52:00,26.0,-99.9,-100.00,North,-999,-999.0,-999.0,-999,0.01,,,0.26,,2013-02-25 05:52:00,
2013-02-25 01:03:00,26.0,-99.9,-100.00,North,-999,-999.0,-999.0,-999,0.01,,,0.26,,2013-02-25 06:03:00,
2013-02-25 01:12:00,26.0,-99.9,-100.00,North,-999,-999.0,-999.0,-999,0.01,,,0.26,,2013-02-25 06:12:00,
2013-02-25 01:42:00,26.0,-99.9,-100.00,North,-999,-999.0,-999.0,-999,0.00,,,0.26,,2013-02-25 06:42:00,
2013-02-25 01:52:00,26.0,-99.9,-100.00,North,-999,-999.0,-999.0,-999,0.00,,,0.26,,2013-02-25 06:52:00,
2013-02-25 02:01:00,26.0,-99.9,-100.00,North,-999,-999.0,-999.0,-999,0.00,,,0.26,,2013-02-25 07:01:00,
2013-02-25 02:12:00,26.0,-99.9,-100.00,North,-999,-999.0,-999.0,-999,0.00,,,0.26,,2013-02-25 07:12:00,
2013-02-25 02:52:00,26.0,-99.9,-100.00,North,-999,-999.0,-999.0,-999,0.00,,,0.25,,2013-02-25 07:52:00,
2013-02-25 03:01:00,26.0,-99.9,-100.00,North,-999,-999.0,-999.0,-999,0.00,,,0.25,,2013-02-25 08:01:00,
2013-02-25 03:11:00,26.0,-99.9,-100.00,North,-999,-999.0,-999.0,-999,0.00,,,0.25,,2013-02-25 08:11:00,
2013-02-25 03:42:00,25.0,-99.9,-100.00,North,-999,-999.0,-999.0,-999,0.00,,,0.23,,2013-02-25 08:42:00,
2013-02-25 03:52:00,25.0,-99.9,-100.00,North,-999,-999.0,-999.0,-999,0.00,,,0.23,,2013-02-25 08:52:00,
2013-02-25 04:02:00,25.0,-99.9,-100.00,North,-999,-999.0,-999.0,-999,0.00,,,0.23,,2013-02-25 09:02:00,
2013-02-25 04:12:00,25.0,-99.9,-100.00,North,-999,-999.0,-999.0,-999,0.00,,,0.23,,2013-02-25 09:12:00,
2013-02-25 04:42:00,25.0,-99.9,-100.00,North,-999,-999.0,-999.0,-999,0.00,,,0.23,,2013-02-25 09:42:00,
2013-02-25 04:52:00,25.0,-99.9,-100.00,North,-999,-999.0,-999.0,-999,0.00,,,0.23,,2013-02-25 09:52:00,
2013-02-25 05:01:00,25.0,-99.9,-100.00,North,-999,-999.0,-999.0,-999,0.00,,,0.23,,2013-02-25 10:01:00,
2013-02-25 05:11:00,25.0,-99.9,-100.00,North,-999,-999.0,-999.0,-999,0.00,,,0.23,,2013-02-25 10:11:00,
2013-02-25 05:52:00,24.0,-99.9,-100.00,North,-999,-999.0,-999.0,-999,0.00,,,0.23,,2013-02-25 10:52:00,
2013-02-25 06:02:00,24.0,-99.9,-100.00,North,-999,-999.0,-999.0,-999,0.00,,,0.23,,2013-02-25 11:02:00,
2013-02-25 06:11:00,24.0,-99.9,-100.00,North,-999,-999.0,-999.0,-999,0.00,,,0.23,,2013-02-25 11:11:00,
2013-02-25 06:42:00,24.0,-99.9,-100.00,North,-999,-999.0,-999.0,-999,0.00,,,0.22,,2013-02-25 11:42:00,
2013-02-25 06:52:00,24.0,-99.9,-100.00,North,-999,-999.0,-999.0,-999,0.00,,,0.22,,2013-02-25 11:52:00,
2013-02-25 07:02:00,24.0,-99.9,-100.00,North,-999,-999.0,-999.0,-999,0.00,,,0.22,,2013-02-25 12:02:00,
2013-02-25 07:11:00,24.0,-99.9,-100.00,North,-999,-999.0,-999.0,-999,0.00,,,0.22,,2013-02-25 12:11:00,
2013-02-25 07:43:00,25.0,-99.9,-100.00,North,-999,-999.0,-999.0,-999,0.00,,,0.22,,2013-02-25 12:43:00,
2013-02-25 07:57:00,25.0,-99.9,-100.00,North,-999,-999.0,-999.0,-999,0.00,,,0.22,,2013-02-25 12:57:00,
2013-02-25 08:03:00,25.0,-99.9,-100.00,North,-999,-999.0,-999.0,-999,0.00,,,0.22,,2013-02-25 13:03:00,
2013-02-25 08:12:00,25.0,-99.9,-100.00,North,-999,-999.0,-999.0,-999,0.00,,,0.22,,2013-02-25 13:12:00,
2013-02-25 08:42:00,26.0,-99.9,-100.00,North,-999,-999.0,-999.0,-999,0.00,,,0.22,,2013-02-25 13:42:00,
2013-02-25 08:53:00,26.0,-99.9,-100.00,North,-999,-999.0,-999.0,-999,0.00,,,0.22,,2013-02-25 13:53:00,
2013-02-25 09:05:00,26.0,-99.9,-100.00,North,-999,-999.0,-999.0,-999,0.00,,,0.22,,2013-02-25 14:05:00,
2013-02-25 09:42:00,32.0,-99.9,-100.00,North,-999,-999.0,-999.0,-999,0.00,,,0.22,,2013-02-25 14:42:00,
2013-02-25 09:52:00,32.0,-99.9,-100.00,North,-999,-999.0,-999.0,-999,0.00,,,0.22,,2013-02-25 14:52:00,
2013-02-25 10:03:00,32.0,-99.9,-100.00,North,-999,-999.0,-999.0,-999,0.00,,,0.22,,2013-02-25 15:03:00,
2013-02-25 10:12:00,32.0,-99.9,-100.00,North,-999,-999.0,-999.0,-999,0.00,,,0.22,,2013-02-25 15:12:00,
2013-02-25 10:42:00,33.0,-99.9,-100.00,North,-999,-999.0,-999.0,-999,0.00,,,0.21,,2013-02-25 15:42:00,
2013-02-25 10:52:00,33.0,-99.9,-100.00,North,-999,-999.0,-999.0,-999,0.00,,,0.21,,2013-02-25 15:52:00,
2013-02-25 11:02:00,33.0,-99.9,-100.00,North,-999,-999.0,-999.0,-999,0.00,,,0.21,,2013-02-25 16:02:00,
2013-02-25 11:12:00,33.0,-99.9,-100.00,North,-999,-999.0,-999.0,-999,0.00,,,0.21,,2013-02-25 16:12:00,
2013-02-25 11:52:00,34.0,-99.9,-100.00,North,-999,-999.0,-999.0,-999,0.00,,,0.20,,2013-02-25 16:52:00,
2013-02-25 12:02:00,34.0,-99.9,-100.00,North,-999,-999.0,-999.0,-999,0.00,,,0.20,,2013-02-25 17:02:00,
2013-02-25 12:12:00,34.0,-99.9,-100.00,North,-999,-999.0,-999.0,-999,0.00,,,0.20,,2013-02-25 17:12:00,
2013-02-25 12:42:00,37.0,-99.9,-100.00,North,-999,-999.0,-999.0,-999,0.00,,,0.19,,2013-02-25 17:42:00,
2013-02-25 12:52:00,37.0,-99.9,-100.00,North,-999,-999.0,-999.0,-999,0.00,,,0.19,,2013-02-25 17:52:00,
2013-02-25 13:02:00,37.0,-99.9,-100.00,North,-999,-999.0,-999.0,-999,0.00,,,0.19,,2013-02-25 18:02:00,
2013-02-25 13:12:00,37.0,-99.9,-100.00,North,-999,-999.0,-999.0,-999,0.00,,,0.19,,2013-02-25 18:12:00,
2013-02-25 13:42:00,37.0,-99.9,-100.00,North,-999,-999.0,-999.0,-999,0.00,,,0.17,,2013-02-25 18:42:00,
2013-02-25 13:52:00,37.0,-99.9,-100.00,North,-999,-999.0,-999.0,-999,0.00,,,0.17,,2013-02-25 18:52:00,
2013-02-25 14:11:00,37.0,-99.9,-100.00,North,-999,-999.0,-999.0,-999,0.00,,,0.17,,2013-02-25 19:11:00,
2013-02-25 14:42:00,35.0,-99.9,-100.00,North,-999,-999.0,-999.0,-999,0.00,,,0.15,,2013-02-25 19:42:00,
2013-02-25 14:53:00,35.0,-99.9,-100.00,North,-999,-999.0,-999.0,-999,0.00,,,0.15,,2013-02-25 19:53:00,
2013-02-25 15:02:00,35.0,-99.9,-100.00,North,-999,-999.0,-999.0,-999,0.00,,,0.15,,2013-02-25 20:02:00,
2013-02-25 15:52:00,34.0,-99.9,-100.00,North,-999,-999.0,-999.0,-999,0.00,,,0.15,,2013-02-25 20:52:00,
2013-02-25 16:02:00,34.0,-99.9,-100.00,North,-999,-999.0,-999.0,-999,0.00,,,0.15,,2013-02-25 21:02:00,
2013-02-25 16:11:00,34.0,-99.9,-100.00,North,-999,-999.0,-999.0,-999,0.00,,,0.15,,2013-02-25 21:11:00,
2013-02-25 16:42:00,34.0,-99.9,-100.00,North,-999,-999.0,-999.0,-999,0.00,,,0.15,,2013-02-25 21:42:00,
2013-02-25 16:52:00,34.0,-99.9,-100.00,North,-999,-999.0,-999.0,-999,0.00,,,0.15,,2013-02-25 21:52:00,
2013-02-25 17:02:00,34.0,-99.9,-100.00,North,-999,-999.0,-999.0,-999,0.00,,,0.15,,2013-02-25 22:02:00,
2013-02-25 17:11:00,34.0,-99.9,-100.00,North,-999,-999.0,-999.0,-999,0.00,,,0.15,,2013-02-25 22:11:00,
2013-02-25 17:42:00,32.0,-99.9,-100.00,North,-999,-999.0,-999.0,-999,0.00,,,0.15,,2013-02-25 22:42:00,
2013-02-25 17:52:00,32.0,-99.9,-100.00,North,-999,-999.0,-999.0,-999,0.00,,,0.15,,2013-02-25 22:52:00,
2013-02-25 18:01:00,32.0,-99.9,-100.00,North,-999,-999.0,-999.0,-999,0.00,,,0.15,,2013-02-25 23:01:00,
2013-02-25 18:11:00,32.0,-99.9,-100.00,North,-999,-999.0,-999.0,-999,0.00,,,0.15,,2013-02-25 23:11:00,
2013-02-25 18:52:00,29.0,-99.9,-100.00,North,-999,-999.0,-999.0,-999,0.00,,,0.13,,2013-02-25 23:52:00,
2013-02-25 19:02:00,29.0,-99.9,-100.00,North,-999,-999.0,-999.0,-999,0.00,,,0.13,,2013-02-26 00:02:00,
2013-02-25 19:12:00,29.0,-99.9,-100.00,North,-999,-999.0,-999.0,-999,0.00,,,0.13,,2013-02-26 00:12:00,
2013-02-25 19:42:00,27.0,-99.9,-100.00,North,-999,-999.0,-999.0,-999,0.00,,,0.12,,2013-02-26 00:42:00,
2013-02-25 19:52:00,27.0,-99.9,-100.00,North,-999,-999.0,-999.0,-999,0.00,,,0.12,,2013-02-26 00:52:00,
2013-02-25 20:02:00,27.0,-99.9,-100.00,North,-999,-999.0,-999.0,-999,0.00,,,0.12,,2013-02-26 01:02:00,
2013-02-25 20:12:00,27.0,-99.9,-100.00,North,-999,-999.0,-999.0,-999,0.00,,,0.12,,2013-02-26 01:12:00,
2013-02-25 20:42:00,27.0,-99.9,-100.00,North,-999,-999.0,-999.0,-999,0.00,,,0.09,,2013-02-26 01:42:00,
2013-02-25 20:52:00,27.0,-99.9,-100.00,North,-999,-999.0,-999.0,-999,0.00,,,0.09,,2013-02-26 01:52:00,
2013-02-25 21:02:00,27.0,-99.9,-100.00,North,-999,-999.0,-999.0,-999,0.00,,,0.09,,2013-02-26 02:02:00,
2013-02-25 21:12:00,27.0,-99.9,-100.00,North,-999,-999.0,-999.0,-999,0.00,,,0.09,,2013-02-26 02:12:00,
2013-02-25 21:42:00,28.0,-99.9,-100.00,North,-999,-999.0,-999.0,-999,0.00,,,0.06,,2013-02-26 02:42:00,
2013-02-25 21:52:00,28.0,-99.9,-100.00,North,-999,-999.0,-999.0,-999,0.00,,,0.06,,2013-02-26 02:52:00,
2013-02-25 22:02:00,28.0,-99.9,-100.00,North,-999,-999.0,-999.0,-999,0.00,,,0.06,,2013-02-26 03:02:00,
2013-02-25 22:12:00,28.0,-99.9,-100.00,North,-999,-999.0,-999.0,-999,0.00,,,0.06,,2013-02-26 03:12:00,
2013-02-25 22:42:00,28.0,-99.9,-100.00,North,-999,-999.0,-999.0,-999,0.00,,,0.03,,2013-02-26 03:42:00,
2013-02-25 22:53:00,28.0,-99.9,-100.00,North,-999,-999.0,-999.0,-999,0.00,,,0.03,,2013-02-26 03:53:00,
2013-02-25 23:02:00,28.0,-99.9,-100.00,North,-999,-999.0,-999.0,-999,0.00,,,0.03,,2013-02-26 04:02:00,
2013-02-25 23:12:00,28.0,-99.9,-100.00,North,-999,-999.0,-999.0,-999,0.00,,,0.03,,2013-02-26 04:12:00,
2013-02-25 23:43:00,29.0,-99.9,-100.00,North,-999,-999.0,-999.0,-999,0.00,,,0.01,,2013-02-26 04:43:00,
2013-02-25 23:52:00,29.0,-99.9,-100.00,North,-999,-999.0,-999.0,-999,0.00,,,0.01,,2013-02-26 04:52:00,